006  
ASCA44 KEWX 060120  
RWRMX  
 
LATIN AMERICA AND CARIBBEAN REGIONAL WEATHER ROUNDUP  
NATIONAL WEATHER SERVICE AUSTIN/SAN ANTONIO TX  
700 PM CST SUN FEB 05 2023  
 
NOTE: "FAIR" INDICATED FEW OR NO CLOUDS BELOW 12,000 FEET WITH NO  
SIGNIFICANT WEATHER AND/OR S TO VISIBILITY
.  
 
BAJA CALIFORNIA  
 
CITY SKY/WX TMP DP RH WIND PRES REMARKS
 
LORETO PTCLDY 70 48 46 NE7 29.98R  
LA PAZ PTCLDY 70 46 43 N9 30.01  
MEXICALI PTCLDY 72 32 23 SW14 30.02  
S.J. DEL CABO CLEAR 72 45 37 S6 30.01R  
TIJUANA PTCLDY 55 52 88 W10 30.20S  
 
NORTHWESTERN MEXICO  
 
CITY SKY/WX TMP DP RH WIND PRES REMARKS
 
CULIACAN CLEAR 77 59 53 W6 29.94  
DURANGO CLEAR 72 9 8 CALM 30.24  
GUAYMAS CLEAR 73 54 49 S13 29.91  
HERMOSILLO PTCLDY 81 28 15 SW6 29.99  
CD. JUAREZ CLEAR 70 12 11 CALM 30.06  
LOS MOCHIS CLEAR 72 52 49 W13 29.98R  
OBREGON CLEAR 72 45 37 W6 29.94  
 
NORTHEASTERN MEXICO  
 
CITY SKY/WX TMP DP RH WIND PRES REMARKS
 
CHIHUAHUA CLEAR 70 25 18 E13 30.10  
MATAMOROS CLEAR 68 61 77 SE8 30.13  
MONCLOVA N/A N/A N/A N/A MISG N/A  
MONTERREY CLEAR 73 46 38 E7 30.08R  
NUEVO LAREDO CLEAR 72 48 43 CALM 30.08  
PIEDRAS NEGRAS CLEAR 68 46 45 SE6 30.08F  
REYNOSA CLEAR 72 55 56 S9 30.11  
SALTILLO N/A N/A N/A N/A MISG N/A  
TORREON CLEAR 77 25 14 E6 30.13S  
CD. VICTORIA CLEAR 73 45 35 S5 30.09S  
 
WESTERN MEXICO  
 
CITY SKY/WX TMP DP RH WIND PRES REMARKS
 
AGUASCALIENTES CLEAR 70 9 9 NE5 30.23  
COLIMA CLEAR 75 64 69 SW12 30.02R  
DEL BAJIO CLEAR 72 21 15 NE8 30.29R  
GUADALAJARA CLEAR 75 32 20 S5 30.15  
MANZANILLO CLEAR 79 73 83 SE6 29.98S  
MAZATLAN CLEAR 75 55 50 NW10 29.92S  
P. VALLARTA CLEAR 75 70 83 SW5 29.94R  
URUAPAN CLEAR 72 52 49 CALM 30.17R  
ZACATECAS CLEAR 68 19 15 MISG 30.28S  
 
CENTRAL MEXICO  
 
CITY SKY/WX TMP DP RH WIND PRES REMARKS
 
CUERNAVACA CLEAR 79 36 21 CALM 30.09R  
MEXICO CITY CLEAR 68 18 14 N14 30.32R  
MORELIA CLEAR 68 28 22 NE3 30.20  
POZA RICA CLEAR 70 64 83 NE9 30.14R  
PUEBLA CLEAR 61 27 27 E5 30.31R  
QUERETARO CLEAR 66 25 20 NE13 30.32R  
S. LUIS POTOSI CLEAR 63 21 20 E7 30.28R  
TAMPICO CLEAR 68 64 88 MISG 30.13S  
TOLUCA CLEAR 59 18 20 E13 30.37R  
 
SOUTHERN MEXICO  
 
CITY SKY/WX TMP DP RH WIND PRES REMARKS
 
ACAPULCO CLEAR 82 72 69 W7 29.89R  
B. DE HUATULCO CLEAR 79 68 69 CALM 29.95  
OAXACA PTCLDY 70 41 35 E16 30.20R  
P. ESCONDIDO PTCLDY 79 66 65 S6 29.93  
VERACRUZ MOCLDY 72 66 83 N8 30.14R  
ZIHUATANEJO CLEAR 82 70 65 SW6 29.91R  
 
YUCATAN PENINSULA  
 
CITY SKY/WX TMP DP RH WIND PRES REMARKS
 
CAMPECHE PTCLDY 77 66 69 N12G23 30.07R  
CANCUN LGT RAIN 75 72 88 CALM 30.08R  
CHETUMAL MOCLDY 75 72 88 CALM 30.07  
CD. DEL CARMEN MOCLDY 75 70 83 NE12 30.08  
COZUMEL PTCLDY 77 73 88 CALM 30.07R  
MERIDA PTCLDY 73 66 78 N6 30.11R  
MINATITLAN MOCLDY 68 66 94 N12 30.07  
TAPACHULA PTCLDY 79 77 94 CALM 29.90R  
TUX. GUTIERREZ CLEAR 72 61 68 NW17 30.04R  
VILLAHERMOSA CLOUDY 70 68 94 CALM 30.10R  
 
CENTRAL AMERICA  
 
CITY SKY/WX TMP DP RH WIND PRES REMARKS
 
MANAGUA PTCLDY 79 64 61 E7 29.89R  
 
CARIBBEAN  
 
CITY SKY/WX TMP DP RH WIND PRES REMARKS
 
ARUBA PTCLDY 81 72 74 E22 29.94S  
CURACAO PTCLDY 79 72 78 E17 29.97R  
KINGSTON MOCLDY 81 72 74 SE21 30.00S  
NASSAU PTCLDY 75 72 88 S8 30.10R  
SAN JUAN PTCLDY 79 70 73 SE3 30.14R  
SANTO DOMINGO MOCLDY 73 70 88 N7 30.09S  
ST. CROIX PTCLDY 77 68 73 E13 30.13R  
ST. KITTS PTCLDY 75 70 83 E16 30.12R  
ST. MAARTEN PTCLDY 77 68 73 E12 30.15  
ST. THOMAS CLEAR 77 68 73 E13 30.13R  
 

 
 
 
 
CLICK HERE TO GO TO PREVIOUS BULLETINS.

The Nexlab HPC Page Main Text Page